Helicity
432 557 468 322 590 649 919 439 384 1223 931 728 607 563 299 279 310 193 138 91 122 111 112 137 132 161 170 148 156 161 215 203 187 154 203 197 232 327 329 338 273 220 212
549 437 475 364 353 788 773 666 984 957 892 759 784 810 498 391 271 177 126 122 163 182 162 155 155 179 166 155 162 178 221 223 221 172 183 218 224 328 431 351 282 237 218
303 510 372 478 479 424 426 515 1187 881 761 766 629 531 363 283 292 258 234 217 210 150 143 145 127 90 102 146 159 210 227 242 247 230 226 209 259 299 403 403 316 280 258
238 335 286 342 535 313 248 389 432 536 450 551 530 502 430 287 259 255 326 316 313 290 264 227 152 133 139 176 210 230 228 202 249 233 225 211 317 357 433 463 403 323 262
95 240 289 205 259 397 287 315 334 481 398 179 249 286 258 201 230 189 224 214 234 260 254 244 272 318 306 215 232 218 202 210 208 219 256 209 374 422 402 502 399 378 296
65 101 257 159 182 121 165 216 348 282 136 120 106 152 162 87 161 195 216 176 149 113 76 93 130 115 157 172 184 175 189 188 193 257 269 245 269 355 405 474 526 425 342
61 63 131 178 113 149 81 153 158 105 85 66 44 39 79 95 191 220 252 140 102 64 55 62 76 102 130 113 98 149 163 154 169 228 275 224 237 279 355 446 450 421 360
22 61 87 95 98 112 114 115 99 102 133 152 161 167 134 96 121 158 195 80 53 37 14 32 50 68 116 148 125 141 194 198 185 190 252 231 207 266 331 384 332 455 475
73 68 63 59 79 95 122 121 139 85 87 89 63 63 115 130 177 210 199 119 79 99 96 97 89 71 107 174 194 130 134 245 254 187 193 228 142 221 319 534 501 412 423
59 54 52 48 33 55 70 94 61 34 41 44 32 44 61 68 132 182 131 71 105 105 136 116 127 133 176 137 141 116 137 272 224 221 259 220 201 293 409 444 512 326 475
26 13 8 35 41 25 23 34 69 79 67 79 60 49 67 76 79 128 131 32 27 47 48 99 106 162 176 201 86 138 150 171 248 240 238 228 206 296 409 515 488 408 390
35 25 15 18 18 20 14 5 23 39 50 89 87 78 91 125 164 151 101 49 17 -44 -9 32 91 171 139 150 82 166 111 56 187 265 252 230 275 327 416 494 510 419 400
43 39 54 42 32 27 15 29 30 46 35 53 69 75 98 115 124 149 127 88 35 -52 -43 36 126 169 199 126 162 129 66 130 101 242 298 301 329 326 515 633 779 749 624
26 46 56 52 61 52 1 -32 -36 0 23 32 49 57 67 79 109 113 88 96 47 -18 -29 -10 62 133 166 147 151 107 97 130 188 218 201 272 355 399 496 659 712 743 614
22 25 22 22 52 49 23 -25 -53 -56 -35 -8 12 -7 4 21 46 72 39 27 6 -12 -32 -24 45 127 214 256 246 175 160 146 157 187 218 250 273 327 473 553 704 752 695
14 22 11 8 14 11 15 24 13 -28 37 66 100 54 -3 63 99 95 73 105 132 86 -24 -53 -6 47 129 210 233 211 182 199 204 236 271 208 296 357 472 599 578 809 615
21 35 6 14 21 25 26 30 34 26 28 67 103 138 120 111 146 159 116 68 140 120 54 30 -22 12 57 113 157 174 191 188 218 225 199 216 299 413 468 558 543 657 647
-3 23 6 3 17 19 22 17 18 24 38 23 93 103 124 126 150 177 178 121 166 159 101 110 92 51 69 103 146 170 207 243 213 209 257 270 297 454 509 598 534 611 617
-13 1 -1 -11 -2 7 18 20 12 15 18 12 35 78 94 101 104 142 151 53 62 81 100 112 118 108 95 95 133 147 178 209 242 262 275 266 292 406 472 587 716 831 719
-5 -11 -17 -25 -20 4 -5 13 18 14 14 6 -1 42 65 62 76 71 63 71 69 77 92 92 107 107 116 125 125 150 165 211 220 226 240 256 275 297 342 431 470 447 495
48 28 5 -13 -26 -30 -32 -33 -17 -10 -11 -12 -19 -9 20 -5 8 20 23 31 57 72 79 86 89 101 115 130 153 178 166 167 173 205 225 197 237 281 308 330 370 402 431
44 45 44 31 15 -8 -18 -25 -36 -38 -38 -31 -30 -29 -15 -23 -6 0 15 19 9 22 36 49 69 86 98 114 126 153 190 187 168 164 171 188 216 219 228 257 287 316 314
47 47 52 51 45 40 27 9 -7 -16 -26 -32 -34 -36 -34 -41 -31 -12 2 12 16 16 24 41 65 86 95 104 114 130 164 194 160 134 140 148 173 195 210 224 221 196 208
53 55 59 63 60 58 56 49 36 22 6 -3 -14 -26 -31 -39 -42 -37 -20 -7 -7 11 13 27 37 67 85 100 110 122 140 141 154 136 129 122 129 151 174 209 240 251 215
65 65 68 68 68 67 66 66 61 51 40 25 10 4 -11 -16 -24 -26 -36 -13 -18 -12 7 14 35 61 74 101 126 150 172 173 139 115 105 112 121 130 134 150 164 180 172
89 87 85 84 86 83 81 76 72 66 60 49 37 32 20 11 2 -7 -9 -13 -6 -21 -8 4 22 57 84 89 122 145 167 194 135 135 87 87 104 110 108 120 143 156 166
Wind_Speed
56 53 41 36 36 37 56 75 61 36 42 46 46 43 47 42 55 53 53 52 48 47 45 44 40 34 33 32 32 33 42 37 44 63 50 43 37 32 28 30 32 30 30
50 44 32 34 25 28 42 47 62 26 31 41 40 40 37 33 48 45 51 58 59 58 52 49 45 41 43 42 42 46 47 53 54 49 54 53 51 41 34 32 32 34 34
50 39 28 29 27 24 39 40 36 27 36 33 35 42 47 57 54 63 63 67 68 66 62 63 60 56 55 52 54 58 59 56 55 58 62 57 51 39 39 42 40 37 39
41 36 34 27 23 26 44 37 23 27 38 36 36 38 42 45 45 54 57 67 69 70 70 72 67 62 62 62 64 61 63 68 62 67 64 57 54 47 41 43 47 46 43
54 47 42 29 30 35 45 33 29 31 36 37 35 33 33 34 44 52 60 68 77 83 83 78 81 82 87 85 64 65 64 64 67 67 68 63 56 51 46 50 49 49 49
61 54 47 44 38 42 40 37 32 35 30 27 28 26 33 34 50 61 68 77 79 83 88 88 94 102 97 95 92 62 61 62 64 64 65 64 60 55 51 50 52 53 56
64 58 56 50 47 49 46 45 42 37 34 32 31 34 41 47 59 68 69 68 72 74 80 84 92 93 93 99 98 81 60 61 63 64 63 63 61 55 52 52 54 59 59
62 62 59 58 57 50 50 49 48 46 47 46 46 48 47 51 60 66 70 67 69 75 81 85 90 92 86 84 88 89 70 67 69 74 71 69 65 55 53 53 56 57 55
66 64 63 59 59 56 54 52 54 51 52 52 48 49 52 55 63 67 70 69 71 76 78 81 82 86 87 90 78 76 77 67 65 68 69 69 60 57 53 49 51 53 61
67 63 63 62 61 61 57 54 52 51 51 52 52 55 55 58 63 66 69 67 70 73 75 75 74 76 85 85 80 69 63 60 55 62 67 68 67 63 56 55 54 58 56
67 64 62 62 59 56 56 56 57 56 55 55 54 55 59 63 65 68 71 69 70 72 72 75 76 82 82 80 80 70 65 61 55 52 57 64 64 63 60 57 54 56 62
66 65 64 63 61 60 59 57 58 59 57 59 59 58 61 65 68 70 72 72 72 71 73 76 79 82 79 77 76 80 77 66 55 54 55 59 63 63 60 59 55 56 65
68 67 66 64 64 64 63 63 62 62 61 61 61 62 65 69 72 75 77 79 76 73 73 76 79 79 78 75 77 78 75 72 59 56 58 58 61 59 55 57 54 54 53
69 69 69 67 67 66 64 65 64 66 67 68 70 70 73 76 78 79 79 80 77 75 75 76 77 76 74 75 76 75 72 74 75 72 68 63 57 57 57 56 58 53 55
69 68 68 67 67 66 64 61 62 61 65 67 70 71 74 77 79 79 78 80 79 76 75 75 78 78 78 77 76 75 73 73 73 74 66 65 60 58 61 57 60 56 59
69 69 69 69 68 67 66 65 62 58 63 67 69 71 70 73 77 78 76 78 78 76 73 75 78 78 79 79 78 76 74 73 71 69 62 57 57 56 51 55 51 52 57
69 69 67 67 67 68 67 67 67 64 61 66 71 71 72 73 76 77 74 72 75 74 73 75 77 78 78 76 76 74 73 70 65 59 56 53 50 47 50 48 49 41 48
66 67 65 65 66 66 66 65 65 66 68 68 71 71 71 72 72 73 73 68 72 74 73 74 77 77 78 76 74 73 70 67 61 56 51 48 44 42 44 45 42 36 40
66 67 66 65 65 65 65 65 64 65 65 65 69 69 70 68 68 69 70 67 68 70 71 71 72 74 74 74 72 69 66 62 57 52 48 44 38 33 33 30 32 29 31
67 67 67 65 65 66 65 65 65 65 65 65 66 70 70 68 68 68 67 66 66 66 67 67 68 69 70 71 70 68 64 60 54 47 44 39 34 27 24 25 25 22 20
62 67 68 68 67 67 66 65 65 65 65 65 65 67 68 65 65 65 65 64 63 64 64 64 64 65 66 66 67 67 64 58 53 45 42 36 31 26 22 18 14 16 14
62 61 63 68 69 69 68 67 66 65 65 65 65 65 65 63 64 63 63 62 61 61 61 61 62 62 62 63 62 62 61 57 53 50 42 37 33 28 23 18 15 14 12
62 63 62 63 63 65 67 69 69 69 67 67 66 66 66 64 63 63 63 62 60 60 59 59 60 60 60 60 59 59 58 57 53 50 44 40 35 30 27 23 19 16 14
61 62 62 62 62 61 62 63 66 69 69 69 68 67 66 65 64 63 63 62 60 60 59 59 58 59 59 58 58 57 56 55 52 48 45 40 36 32 29 25 23 20 16
59 60 61 61 61 60 60 60 61 64 66 67 68 68 67 66 65 64 63 63 61 60 59 58 58 58 57 58 57 57 56 55 52 48 44 40 37 34 30 27 25 23 20
56 58 59 59 59 59 59 59 59 61 63 64 65 66 66 66 66 66 65 65 63 61 60 59 58 57 57 56 56 55 55 54 51 48 44 40 37 35 32 29 27 26 25
Wind_Direction
305 308 292 277 271 263 253 252 275 210 206 224 236 246 251 248 241 251 260 264 272 279 283 285 283 283 285 285 283 284 294 295 291 294 294 294 289 284 277 283 287 289 291
312 318 299 288 287 263 260 269 246 279 236 231 233 242 259 273 265 268 270 272 278 283 287 289 286 285 281 285 287 289 290 293 291 284 292 290 291 283 278 281 280 288 289
339 335 324 311 290 270 285 283 256 261 242 234 241 250 266 275 276 276 279 281 280 284 287 287 286 285 283 283 284 286 288 288 286 287 290 289 288 279 280 287 284 287 291
336 346 350 343 300 301 304 295 301 280 302 275 262 259 270 281 282 281 285 285 286 289 290 289 288 287 285 286 286 286 287 288 284 285 286 283 284 283 275 277 280 285 285
348 351 352 340 337 328 334 304 308 301 304 309 289 280 289 291 296 295 293 290 289 288 287 289 287 287 287 285 285 285 285 284 283 284 283 284 275 280 268 278 277 279 282
349 351 343 342 341 345 346 328 331 343 326 314 315 300 297 310 309 300 298 293 292 291 288 288 286 281 282 283 285 278 280 282 281 282 281 278 274 275 275 271 275 276 277
351 347 348 341 340 340 343 348 344 328 306 314 322 332 318 314 311 306 305 300 298 298 296 294 288 287 285 281 280 286 272 271 273 279 278 277 273 273 274 269 272 273 274
351 353 349 350 352 343 348 346 348 339 339 333 329 331 318 317 316 313 311 309 303 298 294 293 291 289 289 288 283 282 281 278 278 275 275 277 275 272 267 264 272 275 278
350 352 353 349 351 350 348 343 346 341 344 347 345 338 334 326 324 322 316 306 303 299 298 296 297 293 291 288 287 281 283 280 283 280 276 274 268 270 265 266 267 267 272
346 343 347 349 352 353 347 345 343 343 345 348 344 344 338 332 329 327 321 312 306 305 303 304 306 305 298 293 293 289 280 280 280 284 281 276 274 264 256 254 261 264 264
345 345 346 346 346 346 347 345 343 343 343 341 338 336 337 334 333 327 325 320 315 310 310 311 311 305 303 297 294 294 292 287 281 279 280 278 275 268 259 258 255 263 260
339 342 345 345 346 346 344 340 343 344 341 339 339 338 337 336 334 332 328 325 325 320 319 316 313 310 307 306 300 297 294 297 285 280 281 278 275 270 262 258 261 262 263
340 340 338 338 339 344 346 342 342 341 338 336 334 332 331 334 334 332 332 331 331 329 325 321 318 316 315 309 308 305 301 296 289 282 281 277 276 273 264 260 264 264 266
339 339 339 339 337 338 337 340 341 339 338 338 336 334 333 334 334 333 334 334 333 333 331 329 328 325 320 315 311 309 307 302 295 288 285 282 280 273 264 259 256 256 257
339 337 338 339 338 337 339 340 342 345 345 338 335 334 333 333 334 335 337 337 336 335 336 335 333 330 324 320 317 314 310 307 302 296 290 282 277 272 267 263 254 255 255
342 339 338 336 334 334 334 334 341 345 347 345 341 340 340 340 341 341 342 344 344 342 341 337 334 332 328 324 320 318 316 312 307 304 299 289 278 271 267 264 253 258 251
343 339 339 339 338 336 335 334 331 333 340 342 342 338 339 339 342 343 344 345 348 348 345 342 340 338 333 331 328 325 320 319 316 310 304 297 285 276 266 259 259 254 251
342 340 341 341 339 337 337 337 336 333 332 334 337 337 337 340 341 343 343 343 344 347 347 345 344 343 340 337 334 332 328 327 323 317 308 303 291 280 271 262 262 260 259
346 343 341 341 340 339 338 337 337 336 335 335 335 338 339 340 342 344 346 346 344 345 345 346 347 345 345 343 341 337 334 330 326 322 316 305 296 285 275 275 274 274 257
4 359 353 348 344 341 340 338 336 334 334 335 336 336 336 338 339 339 342 343 343 343 343 344 346 348 349 349 348 346 344 337 331 324 323 312 306 297 291 282 280 269 268
30 20 10 2 358 352 346 342 338 336 334 333 334 336 336 337 336 337 337 341 340 340 340 342 343 346 347 347 348 350 350 345 338 331 331 319 324 319 307 306 305 294 295
28 29 26 20 12 5 358 353 348 343 339 336 334 334 336 337 336 336 337 338 339 339 338 340 342 343 344 346 345 346 348 345 341 345 337 332 338 329 333 331 331 320 310
23 23 24 24 23 19 13 6 358 352 347 343 339 336 336 335 335 334 334 334 334 336 337 338 339 340 342 344 345 347 344 343 339 342 342 342 342 342 339 342 331 324 321
20 20 20 20 21 21 19 17 10 2 356 352 348 344 340 337 336 335 333 332 332 332 334 335 336 338 338 339 340 341 342 340 339 341 345 345 342 341 341 342 337 337 330
19 17 17 17 17 18 17 16 15 10 4 358 352 350 347 343 340 337 335 332 331 331 330 332 333 333 335 336 336 336 336 337 339 338 338 341 345 345 344 343 343 345 345
18 15 14 14 14 14 14 13 12 10 6 3 358 354 351 348 345 341 337 334 330 330 329 329 329 330 331 332 331 332 333 333 336 339 339 338 337 337 338 338 337 335 334